Location: Newark
(7.0858°N, 171.3717°E)
Time: 11:08:30
(UTC+00:00)

Vanguard 2 Rocket - Visible Passes

Search period start: 30 November 2020 00:00
Search period end: 10 December 2020 00:00
Orbit: 553 x 3326 km, 32.9° (Epoch: 29 November)

Date Brightness Start Highest point End Pass type
(mag) Time Alt. Az. Time Alt. Az. Time Alt. Az.
30 Nov 10.5 13:24:17 10° SE 13:24:40 10° SE 13:25:04 10° SE visible
30 Nov 9.6 15:28:59 12° SSW 15:39:57 49° SE 15:57:47 10° ENE visible
30 Nov 9.5 17:41:46 10° WSW 17:57:23 73° NNW 18:18:02 10° NE visible
01 Dec 9.8 14:34:26 25° S 14:39:09 32° SE 14:53:13 10° E visible
01 Dec 9.2 16:41:26 10° SW 16:55:09 89° SE 17:15:36 10° NE visible
02 Dec 10.2 13:39:50 18° SE 13:39:50 18° SE 13:47:15 10° E visible
02 Dec 9.1 15:45:46 29° SW 15:53:34 68° SE 16:12:32 10° ENE visible
02 Dec 9.6 17:56:27 10° WSW 18:11:49 57° NNW 18:31:50 10° NE visible
03 Dec 9.2 14:51:03 46° SSE 14:52:40 48° SE 15:08:49 10° ENE visible
03 Dec 9.2 16:56:59 15° WSW 17:09:17 70° NNW 17:29:29 10° NE visible
04 Dec 10.0 13:56:11 26° ESE 13:56:11 26° ESE 14:04:19 10° E visible
04 Dec 8.8 16:02:07 47° WSW 16:07:25 89° NNW 16:26:44 10° NE visible
04 Dec 9.8 18:11:41 10° W 18:26:42 44° NNW 18:45:43 10° NE visible
05 Dec 8.8 15:07:06 68° ESE 15:07:06 68° ESE 15:23:33 10° ENE visible
05 Dec 9.4 17:13:00 20° W 17:23:50 54° NNW 17:43:17 10° NE visible
06 Dec 9.8 14:11:56 30° E 14:11:56 30° E 14:19:54 10° ENE visible
06 Dec 8.7 16:17:49 52° W 16:21:38 67° NNW 16:40:36 10° NE visible
07 Dec 8.8 15:22:30 69° NE 15:22:30 69° NE 15:37:42 10° NE visible
07 Dec 9.6 17:28:23 19° WNW 17:38:50 42° NNW 17:57:10 10° NE visible
08 Dec 9.8 14:27:03 31° ENE 14:27:03 31° ENE 14:34:35 10° ENE visible
08 Dec 8.9 16:32:55 44° WNW 16:36:17 50° NNW 16:54:21 10° NE visible
09 Dec 9.0 15:37:19 54° NNE 15:37:19 54° NNE 15:51:31 10° NE visible
09 Dec 9.7 17:43:11 15° WNW 17:54:16 33° NNW 18:11:23 10° NE visible
